Temp
27 26 25 25 26 27 27 27 26 26 26 26 25 24 24 23 24 26 28 27 27 25 25 25 25 25 25 24 24 24 25 25 24 24 24 24 24 23 23 22 22 22 21 20 20 21 22 22 22 22 22 21 21 21 21 20 20 20 20 19 19 19 19 19 19 19 19 19 19 19 19 19 19 19 19 19 18 18 19 19 18 18 18 18 18 17
26 25 25 26 28 28 28 27 26 26 26 26 25 24 24 24 24 27 28 27 27 26 24 25 25 25 25 24 24 25 24 25 24 24 24 24 23 23 23 22 21 22 21 20 20 20 21 21 22 22 21 21 21 21 21 20 20 20 20 20 19 19 19 19 19 19 19 19 19 19 19 19 19 19 19 19 18 18 18 19 19 18 18 18 18 18
25 25 26 27 28 27 28 27 26 26 27 26 25 24 23 24 25 26 28 28 27 26 25 25 24 24 25 25 25 25 25 25 25 25 24 23 23 22 22 22 21 21 21 20 20 20 20 21 21 22 21 21 21 21 21 21 20 20 20 20 20 19 19 19 19 19 19 19 19 19 19 19 19 19 19 19 18 18 18 18 18 18 18 18 18 18
23 25 27 28 27 28 27 28 27 26 27 26 25 24 23 25 25 24 26 28 28 27 26 25 24 24 25 25 25 25 26 26 25 25 24 23 23 23 22 22 21 21 20 20 20 20 19 20 21 21 21 21 21 21 21 21 20 20 20 20 20 19 19 19 19 19 19 19 19 19 19 19 19 19 19 18 18 18 18 18 18 18 18 18 17 18
25 28 29 28 28 28 28 27 27 26 25 26 26 25 24 25 25 25 26 28 28 27 27 25 23 23 25 25 26 26 26 26 25 25 24 23 23 23 22 22 22 21 21 21 21 20 19 19 20 21 21 21 21 21 21 21 20 20 20 20 20 19 19 19 19 19 19 19 19 19 19 19 19 19 19 19 19 19 18 18 18 18 18 18 18 18
28 30 30 29 28 28 28 27 27 26 25 24 26 27 26 27 27 27 27 27 24 23 26 25 21 21 24 25 26 26 26 26 25 25 24 23 23 22 22 22 22 22 21 21 21 20 19 19 20 20 21 21 21 21 21 21 21 20 20 20 20 20 19 19 19 19 19 19 19 19 19 19 19 19 19 19 19 19 19 18 19 18 18 18 18 18
30 31 30 29 28 28 28 27 27 27 24 23 26 29 28 28 28 28 27 25 22 22 25 26 22 21 23 24 26 26 26 25 25 25 24 23 22 22 22 22 22 22 21 21 21 20 19 19 19 19 20 21 21 21 21 21 21 20 20 20 20 20 19 19 19 19 19 19 19 19 19 19 19 19 19 19 19 19 19 19 19 18 18 18 18 18
31 32 31 29 29 28 27 27 29 28 25 24 28 29 29 29 29 28 27 25 23 24 25 26 24 22 21 24 26 26 25 25 24 24 24 23 22 22 22 22 22 22 22 22 21 21 19 19 19 20 20 21 21 21 21 21 21 21 20 20 20 20 20 20 19 19 19 19 19 19 19 19 19 19 19 19 19 19 19 19 18 18 18 18 18 18
32 32 31 30 28 28 27 29 30 29 27 27 29 30 29 30 29 28 27 24 24 24 22 23 24 22 21 23 26 25 24 25 24 24 24 23 23 22 22 22 22 22 22 22 22 21 19 19 20 21 21 21 22 21 21 21 21 21 20 20 20 20 20 20 20 20 19 19 19 19 19 19 19 19 19 19 19 19 19 19 19 19 18 18 18 18
32 32 32 31 29 29 30 31 31 30 29 29 30 30 29 29 28 27 26 24 23 22 21 22 23 22 21 23 25 25 24 24 24 24 24 24 23 23 23 22 22 22 22 22 22 21 19 20 21 21 21 21 21 22 21 21 21 21 21 20 20 20 20 20 20 20 20 19 19 19 19 19 19 19 19 19 19 19 19 19 19 19 18 19 18 18
32 32 32 32 32 31 32 32 32 31 30 30 30 29 27 27 27 26 25 24 22 21 21 22 23 22 21 22 24 24 25 26 25 24 24 24 23 23 23 23 23 22 22 22 22 20 19 20 21 20 21 21 21 22 21 21 21 21 21 20 20 20 20 20 20 20 20 20 20 19 19 19 19 19 19 19 19 19 19 19 19 19 19 19 19 18
31 31 32 33 33 32 32 32 32 31 30 30 29 27 25 24 25 24 23 23 22 21 22 23 24 23 21 22 25 26 26 26 26 25 24 24 23 23 23 23 23 22 22 22 22 21 19 19 19 20 20 21 21 21 21 21 21 21 21 20 20 20 20 20 20 20 20 20 20 20 19 19 19 19 19 19 19 19 19 19 19 19 19 19 19 19
30 31 31 32 33 33 32 30 30 31 30 29 27 25 23 21 22 22 21 22 21 21 23 23 24 22 22 24 26 27 27 26 26 26 25 24 24 23 23 23 23 22 22 22 21 21 20 19 18 19 20 20 21 21 21 21 21 21 21 20 20 20 20 20 20 20 20 20 20 20 20 19 19 19 19 19 19 19 20 20 19 19 19 19 19 19
26 29 31 31 31 32 32 29 27 28 28 27 25 24 22 21 21 21 21 21 21 21 22 24 24 22 22 24 26 27 27 26 26 26 25 25 24 23 23 23 23 22 22 22 21 21 20 19 18 19 20 20 21 21 21 21 21 21 21 21 21 20 20 20 20 20 20 20 20 20 20 20 20 20 20 20 20 20 20 19 19 19 19 19 19 19
23 24 29 31 30 31 32 31 29 29 29 28 28 26 23 22 22 21 21 21 21 21 22 23 23 21 22 24 26 27 27 26 27 26 25 25 24 24 23 23 23 22 22 22 21 21 20 19 19 20 20 21 21 21 21 21 21 21 21 21 21 21 21 20 20 20 20 20 20 20 20 20 20 20 20 20 20 20 20 20 19 19 19 19 19 19
22 23 29 31 31 32 32 32 32 31 29 28 29 27 24 24 24 22 21 21 21 21 21 22 22 22 24 26 26 27 27 27 27 26 25 24 24 24 23 23 23 22 22 22 21 21 20 19 19 20 21 22 22 21 21 21 21 21 21 21 21 21 21 21 21 20 20 20 20 20 20 20 20 20 20 20 20 20 20 20 20 20 20 19 19 19
22 24 30 31 30 33 33 32 33 30 28 27 26 25 26 27 26 23 21 21 21 21 21 21 22 23 24 25 26 26 26 27 27 26 25 24 24 23 23 23 23 22 22 22 22 22 20 19 19 20 21 22 22 22 22 22 21 21 21 21 21 21 21 21 21 21 21 21 21 20 20 20 20 20 20 20 20 20 20 20 20 20 20 20 20 20
24 24 29 31 30 32 32 32 33 31 30 28 25 26 28 27 27 24 21 21 21 21 21 21 21 22 21 23 25 26 26 27 27 26 24 23 23 23 23 23 23 22 22 22 22 21 19 18 19 20 21 22 22 22 22 22 22 22 22 22 22 22 21 21 21 21 21 21 21 21 21 21 21 21 21 21 21 20 20 20 20 20 20 20 20 20
27 24 27 31 31 31 32 31 30 30 31 29 27 29 28 24 23 23 22 21 21 21 21 21 21 21 21 22 24 25 26 27 26 25 24 23 23 23 23 22 22 22 22 22 21 21 19 19 19 21 21 22 22 22 22 22 22 22 22 22 22 22 22 22 21 21 21 21 21 21 21 21 21 21 21 21 21 21 21 21 21 21 21 20 20 20
28 24 24 29 31 30 31 29 26 27 30 30 30 30 28 25 24 23 22 22 21 21 21 21 21 21 23 25 25 25 26 26 25 24 24 24 23 23 23 22 22 22 22 21 21 21 20 19 20 22 22 22 22 22 23 22 22 22 22 22 22 22 22 22 22 22 22 22 22 21 21 21 21 21 21 21 21 21 21 21 21 21 21 21 21 20
29 25 22 27 30 28 27 28 27 28 28 28 27 26 26 26 24 24 23 22 22 22 21 21 21 21 25 26 26 26 26 26 26 25 24 24 23 23 23 22 22 21 21 21 21 21 20 19 20 22 23 23 23 23 23 22 22 23 22 22 22 22 22 22 22 22 22 22 22 22 22 22 22 22 22 22 22 21 21 21 21 21 21 21 21 21
29 26 23 24 26 25 26 29 30 30 30 29 27 25 25 25 24 23 23 22 22 22 21 21 21 22 26 27 26 27 26 26 26 25 24 24 23 23 22 22 22 21 21 21 21 21 20 19 20 21 22 22 22 23 23 23 23 23 23 23 23 23 23 23 22 22 22 22 22 22 22 22 22 22 22 22 22 22 22 22 22 22 21 21 21 21
29 28 24 23 24 26 28 30 29 29 30 30 28 27 26 26 24 22 21 22 22 21 21 22 21 22 27 28 26 27 26 26 25 25 24 24 23 23 22 22 22 22 21 21 21 21 19 19 20 21 21 22 22 22 23 23 23 23 23 23 23 23 23 23 23 23 23 22 22 22 22 22 22 22 22 22 22 22 22 22 22 22 22 22 22 21
28 27 24 23 25 27 29 29 29 29 30 28 27 27 27 27 26 24 23 23 22 21 21 22 20 23 28 28 25 25 26 25 25 25 25 24 23 23 22 22 22 22 21 21 21 20 19 19 20 20 20 21 21 22 23 23 23 23 23 23 23 23 23 23 23 23 23 23 23 23 22 22 22 22 22 22 22 22 22 22 22 22 22 22 22 22
27 25 23 22 23 24 25 26 27 28 29 27 27 27 27 27 27 26 24 23 22 21 21 22 21 23 27 27 25 25 26 25 25 25 25 25 24 23 22 22 22 22 21 21 21 21 20 20 19 20 20 21 21 22 22 23 23 23 23 23 23 23 23 23 23 23 23 23 23 23 23 23 23 23 23 23 23 23 23 23 23 22 22 22 22 22
28 26 25 22 21 21 22 22 23 25 26 26 27 27 27 28 27 25 23 22 22 21 21 22 21 23 27 27 25 25 25 25 24 25 25 25 24 23 23 22 22 21 21 21 21 21 21 21 20 20 21 21 21 22 22 23 24 24 24 24 24 24 24 24 24 24 24 24 24 23 23 23 23 23 23 23 23 23 23 22 22 22 22 21 21 21
29 27 27 24 23 23 23 24 26 26 25 25 25 27 27 26 27 26 23 22 22 22 22 22 23 23 26 27 26 25 25 25 25 24 24 24 24 23 23 22 22 22 21 22 21 22 22 22 21 20 21 21 22 22 23 23 24 24 24 24 24 24 24 24 24 24 24 24 24 24 24 24 24 23 23 23 22 22 22 21 21 21 21 20 20 20
29 26 26 26 25 25 25 26 28 27 26 26 26 26 26 26 27 26 23 23 23 22 21 23 24 23 25 27 27 25 25 25 24 24 24 24 23 23 23 22 22 22 22 22 22 22 22 22 22 21 21 22 22 22 23 24 24 25 25 25 25 25 25 24 24 24 24 24 24 24 24 23 23 22 22 22 21 21 21 21 21 20 20 20 20 20
28 25 25 26 26 27 28 27 27 27 27 27 27 27 27 26 26 25 24 24 24 23 22 24 24 24 26 28 27 26 26 25 25 24 24 24 23 23 23 22 22 22 22 22 22 22 22 23 22 21 21 22 22 22 23 23 25 25 25 25 25 25 25 25 24 24 24 24 24 23 22 22 22 22 21 21 21 21 21 20 20 20 20 20 19 19
27 25 26 27 26 27 28 28 27 28 27 27 27 27 27 27 27 27 26 25 26 25 25 26 25 26 27 28 28 27 26 25 24 24 23 23 23 23 23 23 23 22 22 22 22 22 22 23 22 20 20 22 22 22 23 23 24 25 25 25 25 25 25 25 24 24 24 23 22 22 22 22 21 21 21 21 21 20 20 20 19 19 19 19 19 18
26 25 26 27 25 25 28 28 27 27 26 26 27 27 26 26 26 26 25 26 25 25 25 26 25 26 27 27 27 27 25 24 24 24 24 24 23 23 23 23 23 23 23 23 23 23 22 23 22 20 20 22 23 23 23 24 25 25 25 25 25 25 25 24 24 23 23 22 21 21 21 21 21 20 20 20 20 19 19 19 19 19 19 19 18 18
28 26 26 26 23 22 26 27 26 26 25 24 25 26 25 25 25 25 26 26 26 25 25 24 24 26 27 26 25 25 25 25 25 24 24 24 23 23 23 23 23 23 23 23 24 23 23 23 23 20 20 22 23 23 24 24 25 25 25 25 25 25 24 23 23 22 22 21 21 21 20 20 20 20 19 19 19 19 18 18 18 18 18 18 18 18
28 27 25 24 22 22 25 26 25 25 23 22 24 26 27 26 26 26 26 27 27 26 25 24 25 27 27 25 25 25 25 27 27 26 25 24 23 23 24 24 24 23 23 24 24 24 24 23 22 21 21 23 24 24 25 26 26 25 25 25 25 24 23 22 22 22 21 21 20 20 20 19 19 19 19 19 18 18 18 18 18 18 18 18 18 18
27 27 26 24 22 22 24 25 24 23 21 23 26 29 29 29 28 27 27 27 27 27 27 27 27 28 26 25 27 27 27 28 28 27 27 26 24 24 24 24 24 23 23 23 23 25 24 23 22 22 23 24 25 25 26 26 26 25 24 24 23 23 22 22 21 21 20 20 20 20 19 19 19 18 18 18 18 18 18 18 18 18 17 17 17 17
27 27 25 24 23 22 23 23 22 21 22 25 27 27 27 28 29 28 28 28 27 26 27 28 28 28 27 26 27 28 28 28 27 27 28 28 26 25 25 24 24 23 23 23 24 24 23 21 22 22 23 24 25 25 25 25 25 24 23 23 23 22 21 21 20 20 19 19 19 19 19 19 18 18 18 18 18 18 18 18 17 17 17 17 17 17
27 26 25 24 23 22 22 22 21 21 24 27 26 25 25 26 27 27 26 27 27 26 27 29 28 28 28 27 27 27 26 26 25 26 27 27 27 27 26 26 25 25 25 24 23 23 22 21 22 23 24 24 25 25 24 24 24 23 22 22 22 21 20 20 19 19 19 19 19 19 19 18 18 18 18 18 18 18 17 17 17 17 17 17 17 17
27 26 25 24 22 22 22 21 22 22 23 25 26 26 27 27 28 27 26 26 27 26 26 28 29 28 28 28 27 25 24 24 25 26 26 26 26 26 28 28 26 25 24 22 22 22 22 23 24 24 24 24 24 24 23 23 23 22 21 20 20 20 19 19 19 18 18 18 18 18 18 18 18 18 18 18 17 17 17 17 17 17 17 17 17 16
27 26 26 24 22 22 22 21 22 21 21 24 27 29 28 27 28 29 27 25 26 26 25 27 28 28 28 28 26 24 24 26 26 26 27 26 25 25 26 25 22 21 20 20 20 21 21 22 23 23 23 23 22 22 22 22 22 21 20 19 19 19 19 19 18 18 18 18 18 18 18 18 18 18 17 17 17 17 17 17 17 17 17 17 16 16
26 25 26 24 22 22 22 21 21 21 22 25 28 29 27 26 28 29 25 23 27 27 24 25 27 27 28 28 26 25 26 26 25 26 27 27 25 24 24 23 20 19 19 20 20 20 20 21 22 22 22 22 20 20 20 21 21 20 19 18 19 19 18 18 18 18 18 18 18 18 18 17 17 17 17 17 17 17 17 17 17 17 17 16 16 16
25 24 24 23 22 22 22 21 21 22 24 25 26 26 25 25 28 27 22 22 27 27 24 25 27 27 26 26 25 25 26 27 27 27 26 25 24 23 22 22 20 18 19 19 20 20 20 21 21 20 20 20 19 19 20 20 20 19 18 18 19 18 18 18 18 18 18 18 18 17 17 17 17 17 17 17 17 17 17 16 16 17 16 16 16 16
24 23 22 22 22 21 22 21 21 23 24 24 23 24 25 25 26 24 22 23 27 26 24 25 27 26 26 27 26 26 27 26 26 25 24 24 24 22 20 20 19 19 19 19 19 20 19 19 19 19 18 19 19 19 20 20 20 18 18 18 18 18 18 18 18 18 18 17 17 17 17 17 17 17 17 17 17 17 16 16 16 16 16 16 16 16
22 22 21 21 21 21 21 21 21 22 23 22 22 23 24 24 24 23 23 24 24 25 24 25 25 25 26 27 27 27 26 24 23 24 23 23 23 21 19 19 18 18 18 18 19 19 19 18 18 18 18 19 19 20 20 20 19 18 18 18 17 17 18 18 18 18 17 17 17 17 17 17 17 17 17 17 17 17 16 16 16 16 16 16 16 16
21 21 21 21 21 21 21 21 21 22 22 22 22 24 24 24 23 23 23 23 22 23 24 24 24 25 25 26 26 25 25 24 23 23 23 21 20 20 19 18 18 17 17 17 18 18 18 17 17 18 18 19 20 20 20 20 19 18 18 17 17 17 18 17 18 18 17 17 17 17 17 17 17 17 17 17 17 17 17 16 16 16 16 16 15 15
21 21 21 21 21 21 21 21 21 21 21 21 22 23 23 22 22 22 23 23 23 23 23 23 24 23 24 25 25 23 24 24 22 22 21 20 20 19 18 18 17 17 17 17 17 18 18 17 17 17 18 19 20 20 20 20 19 18 18 17 17 18 18 17 17 17 16 16 17 17 17 17 17 17 17 17 17 17 16 16 16 16 15 15 16 15
21 20 21 21 21 20 21 21 21 21 20 20 21 22 22 22 22 22 23 23 23 23 23 24 24 23 24 25 25 24 24 24 22 21 20 20 19 19 18 17 17 17 17 17 17 18 18 17 17 17 18 18 19 20 20 20 19 18 17 17 17 18 17 17 17 17 16 16 17 17 17 17 17 17 17 17 16 16 16 16 16 15 15 15 15 15
20 20 20 21 21 20 20 20 20 20 21 20 20 21 21 21 21 22 23 23 22 22 22 23 23 24 24 25 25 25 23 22 20 20 19 19 19 18 17 17 17 16 17 16 17 17 18 17 17 17 17 18 19 19 19 19 19 18 17 17 17 17 17 17 17 16 16 17 17 16 17 17 16 16 16 16 16 16 16 16 16 15 15 15 15 15
21 20 21 21 21 20 20 21 21 21 21 21 20 20 20 20 20 21 22 22 22 22 22 22 22 22 23 23 24 24 22 20 19 19 19 18 18 18 18 17 16 16 17 17 17 17 17 17 17 17 17 17 18 18 18 18 18 17 17 17 17 17 17 17 16 16 16 16 16 16 16 16 16 16 16 16 16 15 15 15 15 15 15 15 15 15
20 20 21 20 20 20 20 20 20 20 19 20 20 20 19 19 20 20 21 21 21 21 21 21 21 22 22 22 22 22 20 19 19 19 19 18 18 18 17 16 16 16 17 17 17 17 17 16 16 16 17 17 17 17 17 17 17 17 17 17 16 16 16 16 16 16 16 16 16 16 16 16 16 16 15 15 15 15 15 15 15 15 15 14 14 14
20 20 20 20 20 20 20 20 20 20 20 21 21 20 19 18 19 20 20 21 22 21 21 21 21 21 22 22 22 22 21 19 19 19 18 18 18 17 17 16 16 17 16 16 17 18 17 17 16 17 17 17 17 17 17 17 16 16 16 16 16 16 16 16 16 16 16 16 16 16 16 16 16 15 15 15 15 15 15 15 15 14 14 14 14 14
20 20 20 19 19 20 20 20 20 20 21 21 21 20 19 19 19 20 21 21 22 22 22 22 22 21 20 20 21 22 22 20 19 19 18 18 18 17 16 16 16 16 16 16 17 17 17 17 17 17 17 17 17 17 17 16 16 16 16 16 16 16 16 16 16 16 16 16 16 16 16 16 15 15 15 15 15 15 15 15 14 14 14 14 14 14
20 20 20 19 19 19 20 20 19 19 20 21 20 19 19 19 20 21 20 20 20 21 22 22 23 22 21 20 19 20 22 21 19 18 18 18 17 16 17 17 16 16 16 16 16 16 16 17 17 17 17 17 17 17 17 16 16 16 17 17 17 17 17 16 16 16 16 16 16 15 15 15 15 15 15 15 15 15 15 15 14 14 14 14 14 13
Height
767 779 785 779 774 771 769 770 771 772 774 777 781 784 785 789 787 779 775 771 769 782 790 787 787 787 784 785 785 784 784 786 788 788 789 789 789 789 790 791 791 792 792 791 792 793 794 796 796 797 798 799 800 800 801 801 802 802 803 804 804 805 805 805 805 805 805 805 805 804 804 804 804 804 803 803 803 802 802 801 801 801 800 800 800 799
769 783 784 770 763 761 762 765 767 770 774 777 782 785 786 789 785 774 772 771 768 779 790 786 788 788 782 783 783 783 785 786 785 787 788 787 788 789 789 791 792 792 792 792 793 794 795 796 796 797 798 799 800 800 801 801 801 802 802 803 804 805 805 805 805 805 805 805 805 805 805 804 804 804 803 803 803 803 802 802 802 801 801 801 800 799
781 783 771 760 756 756 760 762 765 770 773 777 781 785 788 786 782 776 770 769 769 779 789 788 789 789 781 780 782 781 781 782 780 781 784 785 787 789 789 791 792 792 793 794 794 794 795 795 796 797 797 798 799 799 800 801 801 802 802 803 804 804 805 805 805 805 805 805 805 805 805 804 804 804 803 803 803 802 802 801 801 801 801 800 800 800
788 775 757 754 754 757 763 762 764 770 772 776 781 783 786 781 783 784 775 770 771 775 783 787 790 789 783 781 781 778 777 777 777 778 780 781 783 785 786 787 789 791 793 794 794 794 794 795 795 796 797 798 799 799 800 801 801 801 802 803 803 804 805 805 805 805 805 805 805 805 805 804 804 803 803 803 802 802 802 801 801 801 800 800 800 800
775 756 744 751 755 755 762 764 765 771 774 776 777 778 780 778 778 780 775 772 772 774 777 785 799 797 786 786 784 778 776 777 778 779 781 782 782 783 785 786 787 788 790 792 793 793 793 794 795 795 796 797 798 799 799 800 801 801 802 802 803 804 804 804 805 805 805 805 805 804 804 804 803 803 803 802 802 802 801 801 801 801 801 800 800 800
761 744 740 750 754 753 759 765 765 768 775 777 773 770 773 773 773 774 775 776 784 790 781 784 809 810 790 787 786 780 780 781 780 780 783 785 784 785 786 786 787 787 787 789 790 791 792 792 794 795 796 797 797 798 799 800 800 801 801 802 803 803 804 804 804 805 805 804 804 804 804 804 803 803 803 802 802 802 802 801 801 801 801 801 801 800
749 738 740 749 754 755 761 764 760 762 774 778 768 762 766 768 768 771 774 779 791 796 782 778 801 812 798 788 785 781 783 784 783 783 784 785 786 786 786 786 786 787 787 788 788 789 790 792 793 795 795 796 796 797 798 799 800 800 801 802 802 803 803 804 804 804 804 804 804 804 804 804 804 803 803 803 802 802 802 802 801 801 801 801 801 801
743 739 743 750 753 758 764 764 755 756 769 771 759 756 764 765 765 769 771 778 784 784 783 779 785 803 806 792 784 783 786 787 787 787 786 785 786 786 785 785 784 785 786 787 788 788 789 791 791 793 794 794 795 796 798 798 799 800 801 801 802 802 803 803 803 804 804 804 804 804 804 804 803 803 803 803 802 802 802 802 801 801 801 801 801 801
740 743 745 749 756 762 762 756 748 750 763 762 752 754 759 759 763 767 771 779 780 784 795 789 781 801 810 792 783 786 789 791 790 788 787 785 786 786 785 784 783 783 784 785 786 787 787 789 789 790 792 793 795 796 797 798 799 799 800 801 801 802 802 803 803 803 804 804 804 804 804 804 803 803 803 802 802 802 801 801 801 801 801 801 801 801
739 738 737 742 754 757 750 743 740 745 756 752 748 752 755 759 764 769 775 779 783 793 802 792 784 802 812 794 785 789 791 792 789 787 785 783 784 784 783 782 782 783 784 785 785 785 786 787 787 789 791 793 794 795 797 797 798 799 800 801 801 801 802 802 803 803 803 804 803 804 804 803 803 803 803 802 802 801 801 801 801 800 800 800 800 800
735 729 729 734 741 742 738 736 735 739 746 745 749 757 763 767 768 773 779 779 791 805 799 789 784 795 809 800 786 786 784 781 784 786 785 783 784 783 781 781 781 783 784 785 786 785 786 786 787 789 791 792 794 795 797 797 798 799 799 800 801 801 802 802 802 803 803 803 803 803 803 803 803 803 802 802 801 801 800 800 800 800 800 800 800 800
739 736 736 731 729 732 735 737 737 739 743 746 755 765 773 781 779 783 789 787 804 812 793 784 783 789 806 799 781 778 774 772 777 780 782 782 782 782 780 780 780 782 783 785 786 786 786 787 788 789 790 792 794 795 796 797 797 798 799 800 800 801 801 801 802 802 803 803 803 803 803 803 802 802 802 801 801 801 800 800 800 799 799 799 799 799
747 744 739 731 727 729 739 747 746 745 748 754 764 771 785 800 801 803 806 803 809 806 786 782 784 790 797 785 773 774 771 771 772 771 775 778 778 779 779 780 781 781 783 784 786 786 786 787 788 789 790 792 793 794 795 796 797 798 799 799 800 800 801 801 801 802 802 802 802 802 802 802 802 802 801 801 801 800 800 799 799 799 799 799 798 798
758 751 741 740 737 730 737 752 756 754 755 761 766 771 784 802 813 819 819 815 812 799 785 781 784 793 794 779 770 769 767 768 767 766 770 771 773 776 777 779 781 781 783 784 785 786 786 787 787 789 790 791 793 794 795 796 797 798 799 799 800 800 800 801 801 801 802 802 802 802 802 802 802 801 801 801 800 800 800 799 799 798 798 798 798 798
772 770 751 745 744 734 735 743 746 749 752 756 756 761 772 782 797 809 810 808 807 799 790 786 789 797 794 779 768 763 763 765 764 765 768 768 770 773 776 779 780 782 783 784 785 786 786 786 787 788 790 791 792 793 794 795 797 798 798 799 799 799 800 800 800 801 801 801 801 801 801 801 801 801 800 800 800 799 799 799 798 798 797 797 797 797
773 772 747 736 735 731 735 734 731 741 753 755 751 758 765 763 770 790 799 796 797 800 798 793 792 789 781 773 765 763 764 764 764 766 768 770 772 773 777 779 780 782 783 784 785 786 786 787 787 789 790 791 792 793 794 795 796 797 798 798 798 799 799 799 800 800 800 801 801 801 801 801 800 800 800 799 799 799 799 798 798 797 797 797 796 796
770 766 743 736 735 729 731 730 726 738 753 755 755 759 758 752 756 779 798 796 794 804 804 796 794 789 784 780 772 768 768 766 766 768 769 772 772 774 778 779 780 782 782 783 784 785 786 787 788 789 790 791 792 793 794 795 795 796 797 797 798 798 799 799 799 800 800 800 800 800 800 800 800 800 799 799 799 798 798 798 797 797 797 796 796 796
762 764 746 739 742 732 724 727 727 730 738 751 759 754 750 754 757 769 791 801 804 812 807 796 797 798 797 793 781 775 774 771 769 770 772 774 774 776 778 778 779 781 781 782 783 784 786 786 787 789 789 791 792 792 793 794 795 796 796 797 797 797 798 798 799 799 799 799 799 799 799 799 799 799 799 798 798 798 798 797 797 796 796 795 795 795
754 765 753 739 742 735 724 732 740 735 732 741 747 744 750 766 770 770 785 798 805 815 811 799 799 800 796 789 782 780 776 771 771 772 774 776 775 776 778 778 779 780 781 783 783 785 786 786 787 788 789 790 791 792 793 793 794 795 795 796 796 797 797 797 798 798 798 798 798 799 798 799 799 798 798 798 798 797 797 796 796 795 795 794 794 794
748 765 765 745 739 739 734 742 754 750 740 737 740 743 750 760 767 769 776 783 792 808 815 807 802 798 785 775 776 776 772 769 772 774 774 774 774 775 777 778 779 780 781 782 783 784 785 785 787 787 788 790 790 792 792 793 794 794 794 795 795 796 796 796 797 797 797 797 797 798 798 798 798 798 798 797 797 797 796 796 795 795 794 794 793 793
747 762 769 754 742 747 750 749 752 752 749 748 751 756 756 756 761 767 772 775 780 795 808 810 808 795 772 765 769 769 766 765 768 771 773 773 772 773 775 776 778 779 780 781 782 783 784 785 785 786 788 789 789 791 791 792 792 792 793 794 794 795 795 795 796 796 796 797 797 797 797 797 797 797 797 796 796 796 795 795 794 794 793 793 792 792
747 757 765 761 754 755 754 744 740 742 745 749 754 758 760 759 763 773 782 778 774 785 797 802 808 793 765 758 762 762 762 763 763 768 772 773 772 773 774 774 776 777 779 780 781 782 783 784 784 785 786 788 788 789 790 790 791 791 792 793 793 794 794 794 795 795 795 796 796 796 796 796 796 796 796 795 795 795 794 794 793 793 792 792 791 791
740 751 760 763 759 757 751 741 739 739 739 744 750 754 759 760 763 775 787 782 777 788 793 792 801 789 761 755 759 758 760 761 763 766 769 772 773 773 774 774 774 775 776 778 779 780 782 782 783 784 785 786 787 787 788 789 789 790 790 791 792 792 792 793 793 794 795 795 795 795 795 795 795 795 795 794 794 794 793 793 792 792 792 791 790 790
740 753 763 765 761 755 747 740 740 738 739 749 754 754 756 758 760 766 774 775 778 789 790 793 804 789 760 756 760 757 758 762 765 766 767 771 773 772 773 773 774 775 775 777 778 779 781 781 782 783 784 785 785 786 787 787 787 788 789 790 790 790 791 791 792 793 793 794 794 794 794 794 794 794 793 793 793 792 792 792 791 791 791 790 790 789
746 760 766 772 778 774 766 760 754 748 748 755 759 757 756 757 758 763 768 771 779 789 787 793 803 787 762 758 761 758 760 764 766 765 765 768 771 771 772 772 773 774 775 777 778 779 780 781 781 781 782 783 783 784 785 785 786 786 787 788 788 788 789 790 790 791 791 792 792 792 793 792 792 792 792 791 791 791 791 791 790 790 790 790 789 788
745 758 761 774 791 795 792 784 771 762 758 759 760 758 757 757 757 763 771 776 783 791 788 787 791 780 763 762 763 761 763 766 768 767 766 766 768 769 771 771 773 774 775 776 777 778 779 779 779 779 780 780 781 782 783 783 784 785 785 786 786 787 788 788 788 789 789 790 790 791 791 791 790 790 790 790 790 791 791 790 790 790 790 789 789 788
744 754 754 763 774 778 778 770 761 760 761 762 762 759 759 761 759 763 775 781 782 785 786 781 779 775 768 766 766 765 765 766 767 768 768 768 768 768 769 771 772 772 774 774 775 776 777 777 777 777 777 778 778 780 781 782 783 783 783 784 784 785 786 786 787 787 788 789 789 789 789 789 789 790 790 790 791 791 791 790 790 790 790 789 788 788
745 755 755 757 759 760 762 758 754 757 758 758 759 759 760 763 761 762 771 776 777 783 788 780 775 776 771 765 766 765 764 765 766 767 767 766 766 767 769 771 771 772 773 773 774 775 775 775 775 775 775 776 777 778 780 780 781 781 782 782 783 784 785 785 786 786 787 788 788 788 788 789 789 790 790 791 791 791 790 790 790 790 789 789 788 787
746 756 755 755 756 755 755 755 754 755 755 754 754 755 758 761 762 762 766 770 771 777 781 775 772 774 767 762 762 761 760 761 762 761 762 763 764 766 768 770 771 772 773 773 773 773 772 773 773 773 773 774 776 777 778 779 779 779 780 781 782 783 784 785 785 786 787 788 788 788 789 789 790 790 790 790 790 790 790 790 790 790 789 789 788 787
746 755 755 754 755 753 751 753 753 754 756 756 754 754 756 757 758 758 762 766 765 766 769 768 768 767 760 757 757 755 755 757 758 760 761 763 765 766 767 769 769 770 771 770 770 770 770 770 770 771 772 772 774 775 776 777 777 778 778 779 781 782 783 784 785 786 787 787 788 789 789 789 790 789 790 790 790 790 790 790 790 790 789 788 787 787
746 756 756 752 757 758 751 749 753 756 759 757 754 757 758 758 760 761 763 765 765 767 768 766 767 765 757 753 753 753 755 757 758 761 762 762 763 764 766 767 767 768 768 767 767 767 767 768 768 769 770 771 771 772 773 774 775 776 777 777 779 780 781 783 784 785 787 788 788 789 789 789 789 789 789 790 790 790 790 791 790 789 788 787 787 787
745 756 756 755 766 767 754 752 756 756 759 760 757 758 759 759 761 761 760 759 760 766 769 769 770 765 756 754 755 755 756 756 757 759 760 761 762 762 764 765 765 765 765 764 764 764 765 766 766 767 768 768 769 769 771 772 773 774 775 776 778 778 779 782 783 785 787 788 789 789 789 789 789 789 790 790 791 791 791 790 789 788 788 788 788 787
747 753 756 761 772 769 758 758 758 757 767 771 759 751 752 754 755 756 756 755 754 758 764 767 765 756 752 755 757 757 757 755 754 755 756 758 760 760 760 761 761 761 760 760 761 761 762 762 762 763 764 765 766 767 769 770 772 773 774 775 776 777 778 781 782 784 787 788 789 789 789 789 789 790 790 791 791 790 790 789 789 789 789 789 788 788
748 750 756 763 769 769 763 758 760 772 782 770 747 738 741 744 748 752 752 751 750 752 753 753 752 750 752 755 753 753 753 750 748 748 747 750 754 757 758 757 757 757 757 757 758 757 758 758 759 761 762 763 765 766 768 770 771 772 773 774 775 776 778 780 782 784 786 788 789 789 789 789 789 789 790 790 790 789 789 790 790 790 790 790 789 788
750 751 757 761 764 768 766 763 776 789 778 752 739 738 737 737 740 745 747 745 747 750 747 746 748 748 749 750 748 746 746 744 744 744 742 743 747 750 753 753 754 755 756 756 756 755 756 756 757 760 761 762 764 765 767 769 769 771 772 773 775 777 778 780 783 785 786 788 788 789 789 789 788 789 789 789 789 790 790 791 791 791 791 790 790 789
747 752 756 759 764 769 770 775 787 783 760 744 745 743 739 741 744 747 751 749 744 746 745 743 744 743 744 746 745 743 743 744 745 743 740 741 742 744 747 749 749 751 751 750 751 752 753 754 756 758 760 762 763 764 766 767 768 770 772 773 775 777 779 781 783 785 787 788 788 789 789 788 788 788 789 789 790 791 792 792 792 792 792 791 791 790
743 750 754 760 766 769 772 776 775 769 761 754 749 741 736 739 740 742 751 751 744 744 744 741 741 742 741 742 743 743 745 747 750 747 741 740 741 740 741 741 743 745 745 745 747 748 750 753 755 757 760 761 762 764 765 767 768 770 772 774 776 777 780 781 783 785 787 787 788 788 788 788 788 789 790 791 791 792 792 793 793 793 793 792 791 791
737 744 748 758 765 766 771 775 774 777 775 758 743 735 730 733 732 732 744 752 744 741 743 740 739 741 740 740 743 744 746 751 756 751 741 739 740 739 739 739 740 741 743 744 746 748 750 752 755 757 759 760 762 764 765 767 768 769 772 775 776 778 780 781 783 785 786 787 788 788 788 789 789 790 792 792 792 793 793 793 793 793 793 793 792 792
737 742 744 754 764 765 769 776 778 778 769 750 739 733 730 732 728 729 751 761 745 736 741 741 739 739 737 738 741 743 747 756 759 749 739 737 739 739 740 741 741 743 743 744 745 747 750 752 754 756 758 759 763 765 766 767 768 769 773 776 777 778 780 782 784 785 786 787 788 788 789 790 791 792 792 793 793 793 793 794 794 794 793 793 793 793
743 749 751 756 762 763 766 772 773 765 753 744 740 736 733 731 727 741 770 770 742 733 739 738 736 737 736 737 741 743 746 751 750 743 737 736 738 739 739 740 741 743 744 746 747 748 750 752 753 756 758 760 763 766 766 767 768 771 774 776 777 779 781 783 784 785 786 787 788 789 790 792 793 793 793 793 793 794 794 794 794 794 794 794 793 793
748 755 760 761 761 762 764 767 766 758 748 744 742 737 733 733 738 758 772 757 736 736 738 735 735 736 734 735 739 740 740 740 739 737 736 736 737 739 740 740 742 744 745 747 748 749 751 753 755 757 759 761 764 766 767 767 769 772 775 776 778 780 782 783 784 785 786 787 787 790 792 793 793 793 794 794 794 794 794 794 794 794 794 794 794 793
758 761 764 763 764 766 765 765 766 761 750 745 742 737 734 741 753 759 754 742 738 739 737 735 736 734 733 734 734 735 736 735 735 735 735 736 738 740 741 742 743 746 747 749 750 750 752 755 757 759 762 764 765 767 768 768 770 774 776 777 779 781 783 784 785 785 786 787 788 791 792 793 794 794 794 794 794 794 794 794 794 794 794 794 794 793
764 765 767 766 766 767 766 767 771 767 753 743 741 740 741 747 752 748 742 741 741 738 737 737 735 733 733 733 733 734 735 735 736 736 736 738 740 741 743 743 744 746 748 750 752 752 752 755 759 761 763 765 766 767 768 769 771 774 776 778 780 782 783 784 785 786 787 789 790 792 792 793 794 794 795 795 794 794 794 793 794 794 794 794 794 793
764 765 768 767 766 766 766 765 765 761 752 745 744 745 747 747 744 741 741 741 739 737 738 738 735 735 734 732 734 736 735 735 737 737 738 741 741 742 744 745 745 747 749 750 753 753 753 756 759 762 764 766 767 768 768 769 771 774 776 778 780 782 783 784 786 787 789 791 792 792 792 793 794 795 795 795 794 794 794 794 794 794 794 794 794 793
764 762 763 764 763 764 764 761 757 754 751 748 747 746 745 743 741 740 741 741 740 739 737 737 737 737 734 733 735 736 735 736 738 738 739 741 742 743 745 745 746 748 749 751 753 754 754 756 759 762 764 766 767 769 769 770 772 774 776 779 780 781 782 784 785 787 790 791 792 792 792 793 794 795 794 794 794 794 794 794 794 794 794 794 793 793
760 758 758 760 761 762 761 757 754 752 750 748 748 747 745 744 743 741 741 742 742 740 737 737 738 736 735 735 735 735 737 738 738 739 740 741 743 744 745 746 748 749 750 752 754 755 756 757 759 762 764 766 768 769 770 771 772 774 776 779 780 781 782 784 785 787 789 790 791 792 793 794 794 794 794 794 794 794 794 794 794 794 794 793 793 792
758 756 758 760 762 765 763 758 753 753 751 749 749 747 745 744 743 743 744 745 744 741 738 738 738 739 738 737 736 736 738 739 740 742 742 742 744 745 745 747 749 750 750 752 753 754 756 757 760 762 764 766 768 769 771 772 773 774 777 779 780 782 783 784 785 787 788 789 791 792 793 793 794 794 794 794 794 794 794 794 794 794 793 793 793 792
761 758 760 763 764 764 763 758 753 753 753 750 749 750 748 746 744 743 744 746 744 742 739 737 738 741 742 741 740 739 739 741 742 743 743 744 745 745 746 748 749 750 752 753 753 755 756 757 760 762 763 765 767 769 771 772 773 775 777 779 781 783 784 785 786 787 788 789 791 792 792 793 793 793 793 794 794 794 794 794 794 793 793 793 792 792
762 762 764 765 765 763 762 758 754 754 753 749 748 749 749 748 746 744 744 744 742 741 739 737 738 740 741 742 741 739 740 742 742 743 744 746 746 747 748 749 749 751 752 753 753 754 755 756 759 760 762 764 766 768 769 771 773 775 776 778 781 783 784 785 786 787 788 789 790 791 792 792 793 793 793 793 794 794 794 794 794 793 793 793 793 792
763 766 765 767 769 767 762 757 756 757 756 750 748 748 747 747 746 745 745 744 742 741 740 739 739 739 740 741 740 739 740 741 742 744 746 746 746 747 748 748 750 751 751 752 753 754 754 756 757 759 761 763 764 766 768 770 772 774 775 777 780 781 782 784 785 787 788 789 790 791 791 792 792 792 793 793 793 793 793 793 794 793 793 793 793 792
764 765 763 766 770 766 759 755 756 757 756 751 749 749 747 745 745 746 747 746 745 743 741 740 740 740 740 740 738 738 739 740 742 745 746 746 747 747 746 747 748 750 751 752 752 753 754 755 756 758 760 761 763 765 767 769 771 773 775 776 778 780 781 782 784 786 787 788 789 790 791 791 792 792 792 793 793 793 793 793 794 793 794 794 793 792
Wind_Speed
4 3 1 5 6 7 8 10 10 7 5 3 3 4 4 3 3 5 4 4 9 8 5 8 8 8 9 9 10 10 10 9 8 8 7 5 6 5 6 6 7 7 6 9 16 20 21 21 20 19 17 16 14 13 12 12 11 11 11 10 9 7 6 4 3 2 1 2 2 1 2 2 1 1 1 2 4 6 6 5 6 11 11 6 7 9
5 4 7 11 12 10 9 10 10 7 5 4 3 3 4 2 4 5 4 5 7 6 4 7 7 8 10 9 9 9 11 10 10 9 7 7 7 7 8 8 7 6 5 8 11 16 19 20 20 20 18 17 15 14 14 12 11 12 11 11 9 8 7 5 3 3 2 1 1 1 1 1 2 1 1 2 4 5 6 5 5 9 9 6 6 8
3 5 13 15 13 9 6 6 8 8 6 5 3 3 4 4 4 3 1 5 5 4 5 7 7 8 10 7 7 11 12 10 11 11 10 10 9 8 9 8 7 6 6 7 8 11 16 19 20 20 19 17 15 15 14 12 12 12 12 11 9 8 7 5 4 4 2 2 2 1 1 1 1 0 1 2 3 3 4 6 5 6 7 6 5 6
3 8 15 13 10 9 7 7 7 6 5 5 4 4 3 5 4 1 2 4 4 3 6 7 4 4 6 3 5 9 10 9 10 10 10 11 12 11 11 10 9 9 9 8 8 9 13 16 18 19 20 18 16 15 14 13 12 12 11 11 9 8 6 6 6 4 3 2 2 1 1 2 1 1 1 1 1 1 2 4 4 4 5 6 4 4
7 12 11 10 12 13 9 7 7 4 3 4 6 5 5 5 4 3 3 2 2 3 7 6 3 3 4 2 4 6 5 7 7 8 8 8 9 10 10 9 10 10 11 10 9 8 10 14 17 19 20 18 18 17 15 14 13 11 11 10 9 7 6 6 6 5 4 4 3 2 1 0 0 1 2 2 2 1 1 3 4 4 4 4 5 3
10 9 6 13 14 13 10 7 7 7 3 2 6 8 8 7 4 2 4 4 5 2 4 6 4 3 5 3 6 4 3 6 7 8 8 8 8 9 8 8 8 8 9 10 10 9 11 14 15 17 18 18 19 18 16 14 13 12 11 10 8 8 7 6 6 5 5 4 4 3 2 1 1 1 2 2 2 1 2 2 3 4 3 1 3 4
7 3 7 13 13 11 10 5 5 9 4 1 7 10 9 9 7 6 5 5 3 2 3 4 5 2 4 4 6 3 6 6 6 8 8 8 8 8 8 7 7 7 7 7 9 9 10 13 14 15 17 20 20 18 17 15 13 12 11 10 9 8 7 7 6 6 5 4 4 4 3 2 2 3 2 2 3 2 2 2 2 4 3 1 1 3
4 3 6 9 10 7 6 4 6 8 6 3 10 13 11 9 7 6 6 4 3 2 2 3 5 3 2 4 5 2 8 7 6 7 8 8 8 8 8 8 8 8 8 7 7 7 9 13 16 17 20 21 20 18 17 16 14 13 12 10 9 8 7 7 7 7 6 4 4 4 3 3 3 4 4 3 2 2 2 2 3 3 3 2 2 2
3 0 4 8 7 5 4 6 8 8 5 3 9 12 10 8 5 4 6 4 1 4 2 5 3 5 3 5 4 3 8 8 6 7 8 8 8 9 9 9 9 9 8 7 7 7 10 15 19 21 22 21 19 18 18 17 14 13 12 10 9 9 7 7 7 7 6 4 4 4 4 4 4 4 3 2 3 3 3 3 3 3 3 3 3 2
3 5 6 9 6 6 6 8 7 9 4 5 11 10 6 6 6 5 5 4 3 4 2 6 2 5 3 5 2 3 5 8 7 7 9 8 9 10 10 9 8 7 7 6 7 8 12 18 21 21 21 21 19 18 18 16 14 13 12 11 10 9 8 7 7 6 6 5 5 4 5 5 4 4 4 3 4 5 5 5 4 4 3 3 3 2
4 3 3 5 4 6 6 5 3 7 8 9 9 6 5 6 5 4 3 4 4 2 5 5 2 5 1 5 3 3 5 8 7 5 7 7 8 10 9 9 8 7 6 6 5 6 9 14 18 19 20 20 19 18 18 16 14 14 13 12 11 9 8 7 7 7 6 6 6 5 6 6 5 5 4 5 5 6 7 7 6 5 4 4 3 2
5 4 2 2 3 5 2 2 2 5 6 6 6 5 5 4 5 4 4 4 4 2 6 5 3 6 2 4 5 5 5 7 10 8 9 10 10 10 9 8 8 7 7 6 5 5 7 9 12 17 19 19 19 20 19 17 16 15 14 13 11 10 10 8 8 8 7 7 7 7 7 7 6 5 4 5 5 5 6 6 6 5 6 5 5 4
4 3 4 2 0 4 5 2 4 5 5 5 6 6 5 2 3 2 2 2 2 4 6 5 5 3 2 5 5 5 5 7 9 10 11 12 11 10 9 8 6 7 7 6 6 6 6 7 10 15 18 19 20 21 20 19 18 16 14 14 12 11 10 9 9 8 7 7 7 7 6 6 5 4 4 4 4 4 4 4 4 5 6 7 7 7
3 6 5 3 3 1 6 3 2 1 2 6 7 5 4 3 2 0 2 1 1 5 5 3 4 1 2 4 4 7 8 8 9 9 11 12 13 12 10 8 7 7 8 7 6 7 6 7 12 15 18 19 20 22 21 19 18 16 15 14 13 11 10 9 9 9 7 7 7 6 5 5 4 4 4 4 4 3 4 5 5 6 7 8 8 8
2 4 4 1 2 1 3 4 6 5 3 4 6 5 5 4 4 3 3 3 3 3 1 2 2 2 2 3 5 9 9 8 8 7 8 9 10 10 8 8 8 7 7 6 6 6 7 10 14 16 18 18 18 20 21 20 18 16 15 15 13 12 11 9 9 9 8 7 6 6 5 4 4 4 4 4 4 4 5 5 5 5 6 8 8 8
5 3 7 5 3 3 3 4 5 7 2 2 3 5 2 4 5 3 3 5 4 2 1 1 1 2 2 3 3 7 8 7 8 7 7 8 8 9 9 9 8 7 7 6 6 6 7 11 15 16 17 16 15 16 17 19 19 17 15 14 13 12 11 10 8 7 7 7 6 6 6 5 5 5 5 5 5 5 5 5 5 5 5 6 7 7
3 4 7 2 2 2 6 4 3 6 2 1 1 2 3 3 7 5 1 1 4 4 2 1 1 1 1 2 4 2 7 8 7 7 8 9 11 11 10 9 8 8 7 7 6 6 7 10 14 16 17 16 15 14 13 14 17 17 15 13 13 12 12 11 9 7 7 7 7 7 7 6 5 6 6 7 6 6 6 6 6 6 7 6 6 6
4 3 7 1 1 5 4 3 4 3 5 4 1 4 1 3 4 5 3 3 4 3 2 1 4 4 3 1 4 2 7 8 7 8 9 9 11 11 9 9 9 9 8 7 7 6 7 10 13 15 16 17 17 15 12 12 14 14 13 12 11 11 13 13 11 10 8 8 9 8 7 7 6 5 5 5 6 6 7 7 6 7 7 7 7 7
4 0 7 2 3 3 3 7 4 5 3 4 3 3 3 2 0 1 3 2 2 2 2 1 2 4 4 5 6 7 9 9 6 8 10 11 11 10 9 9 9 9 8 7 6 6 7 11 14 15 15 16 16 15 13 12 12 12 12 12 11 10 11 11 11 11 10 10 9 9 8 7 6 6 5 5 5 6 7 7 6 7 7 7 7 8
3 3 4 6 2 1 5 5 2 4 5 4 3 3 2 3 3 1 1 3 4 3 3 1 1 2 5 5 9 12 11 10 9 8 10 11 11 11 9 9 9 9 8 7 7 6 7 11 16 17 17 17 16 15 14 13 13 13 12 12 13 11 10 11 11 11 11 10 9 8 8 7 7 6 5 5 6 7 8 8 9 9 9 8 8 9
3 4 2 6 5 2 1 1 6 4 0 3 4 4 3 1 1 1 1 0 4 4 4 3 0 5 6 4 9 12 11 11 12 10 9 8 10 10 10 10 9 9 9 8 8 7 7 12 16 19 19 18 18 17 15 15 15 13 13 13 13 13 12 12 12 11 11 10 10 9 9 8 7 6 6 6 7 8 9 9 10 10 10 10 10 11
1 3 2 3 4 1 3 4 6 8 6 4 4 2 2 1 2 3 2 3 2 4 3 4 2 6 6 2 7 10 11 10 11 11 9 8 10 10 10 11 11 10 9 8 9 7 8 12 16 19 20 19 19 19 18 18 16 15 15 15 14 14 14 14 13 13 12 11 11 11 9 8 8 8 8 8 8 9 10 10 10 10 11 11 11 11
3 4 3 1 1 2 4 4 1 5 6 5 3 3 4 3 4 5 2 3 2 3 1 4 3 4 6 2 4 8 9 8 9 11 10 8 9 10 10 10 10 10 10 9 9 8 9 14 17 19 19 19 21 21 21 21 19 17 18 17 16 16 16 16 15 14 13 13 12 11 11 10 10 9 9 10 10 10 10 10 11 11 12 12 12 12
3 4 2 2 4 4 6 6 4 4 7 6 2 1 3 3 3 5 5 3 2 2 1 4 2 4 6 3 2 6 8 8 8 10 11 8 7 8 10 10 10 10 9 9 8 7 10 14 16 16 17 19 21 22 23 23 21 19 19 19 19 18 17 16 16 15 15 15 14 13 12 12 11 11 11 11 11 11 11 12 12 12 13 13 13 13
1 1 3 3 4 5 6 7 6 6 4 3 0 2 2 4 5 3 1 3 3 1 3 5 2 6 5 2 3 7 10 10 8 9 11 9 7 7 8 9 9 9 8 8 8 8 9 11 12 14 17 19 21 23 25 24 23 21 20 21 21 20 17 16 15 15 15 15 15 14 14 13 13 12 12 12 12 11 11 11 11 12 13 14 15 16
3 2 3 5 3 1 1 2 2 2 1 1 1 2 1 5 6 3 2 4 2 0 3 5 4 6 5 2 6 8 10 10 9 9 9 8 9 8 8 8 8 8 9 10 9 9 9 9 10 14 17 20 22 24 25 25 24 22 21 21 21 20 19 17 16 15 14 14 14 14 14 14 13 13 13 13 13 12 13 13 14 14 15 15 15 15
4 2 3 7 6 5 6 6 5 3 2 1 1 0 1 3 7 6 4 2 3 2 2 2 6 4 3 2 4 8 10 11 10 9 7 7 8 8 8 8 8 9 9 10 10 9 10 9 10 14 17 20 22 24 25 26 25 22 22 21 20 20 20 19 18 16 14 13 12 13 14 14 14 14 13 12 11 10 10 9 9 9 9 10 10 11
5 2 1 6 6 6 7 8 5 2 4 5 4 3 1 2 6 7 4 3 4 5 2 6 4 6 6 7 6 9 11 10 10 10 10 9 9 8 7 8 9 9 8 9 10 10 10 10 9 11 16 18 19 22 24 26 25 23 22 22 20 20 20 20 20 17 15 14 14 13 12 11 10 8 6 3 3 6 8 10 11 12 12 13 14 15
6 0 2 3 1 4 3 3 4 3 3 4 6 7 5 4 5 6 5 6 6 6 4 6 6 6 7 7 7 9 10 10 11 12 11 10 9 8 8 9 9 10 10 10 10 11 11 11 9 11 15 17 18 21 23 25 25 24 23 23 22 21 20 20 20 17 16 15 13 9 5 2 1 4 7 10 12 13 14 14 14 15 15 16 17 17
5 1 3 2 3 6 5 2 2 4 2 2 4 6 7 8 8 7 5 6 6 5 6 6 6 5 6 7 9 8 7 8 8 8 8 9 10 10 10 10 10 11 11 12 11 11 11 11 10 13 16 17 18 21 24 25 26 25 25 25 24 23 22 21 20 17 14 10 6 2 5 9 12 14 15 15 15 16 15 15 15 16 17 18 18 18
4 2 3 4 5 6 7 5 1 4 4 5 7 4 4 6 5 3 3 4 5 3 3 5 5 4 6 5 6 4 4 6 7 8 9 10 11 11 11 10 11 12 12 12 12 11 10 10 10 12 15 18 21 23 25 26 26 25 26 25 23 24 24 21 17 12 8 7 10 13 16 17 17 17 17 17 17 17 16 15 16 18 18 18 18 17
4 0 1 5 4 5 6 5 6 3 2 2 7 6 5 7 5 3 3 5 6 6 4 5 3 4 6 3 3 5 6 8 9 11 10 9 10 11 11 11 11 12 13 12 11 11 10 10 9 10 16 21 24 24 24 26 25 23 23 22 20 22 21 17 13 13 16 18 20 20 19 19 18 18 18 17 16 16 15 15 17 18 18 18 18 16
4 3 0 3 2 6 6 4 5 6 5 4 6 7 8 6 4 3 2 4 7 7 7 5 5 6 5 4 5 6 6 7 9 9 8 9 10 10 12 12 12 13 13 12 12 11 11 11 12 14 19 24 25 24 24 24 22 19 18 17 15 14 15 18 20 23 23 22 21 21 20 19 18 18 18 16 16 15 15 16 17 18 18 18 17 17
3 5 3 2 2 5 7 4 4 5 2 6 7 8 10 8 8 7 4 7 8 4 4 5 5 4 5 7 8 8 8 7 8 8 8 9 10 10 11 12 12 12 11 11 12 12 11 12 14 16 19 23 24 23 22 21 19 19 20 21 21 22 25 27 27 26 24 22 21 21 19 18 18 18 17 16 16 16 17 17 16 17 17 18 18 19
3 4 2 1 3 3 4 5 5 3 6 8 7 3 6 8 10 8 4 6 8 5 4 4 4 5 8 8 8 9 10 9 8 8 8 9 10 11 12 11 10 9 9 10 11 11 10 12 14 15 16 17 18 17 18 19 19 22 25 27 29 29 29 28 27 25 24 22 20 19 18 17 17 17 16 16 16 16 16 16 15 16 18 19 20 21
5 4 2 1 2 2 1 3 1 6 7 6 8 3 4 5 6 6 1 4 7 7 7 7 7 7 8 9 9 9 8 6 5 6 7 8 9 10 11 10 9 10 12 13 14 13 14 16 18 17 15 14 15 18 20 23 25 27 29 30 31 30 29 28 27 25 23 21 20 18 17 17 17 17 16 15 15 16 16 15 15 16 17 18 19 20
6 4 2 3 2 2 2 2 2 4 5 5 4 2 3 2 4 8 3 5 7 6 7 7 7 8 7 6 6 6 4 5 2 6 6 6 7 9 10 10 11 11 10 11 14 17 19 20 19 19 18 18 20 24 26 27 30 31 30 29 29 29 28 28 26 24 22 20 19 17 16 16 16 16 15 14 14 15 15 14 14 15 15 16 18 20
6 5 5 5 3 3 4 1 2 2 3 5 7 8 5 3 6 8 6 3 7 5 6 7 7 8 8 5 2 5 6 6 3 7 7 7 7 6 7 7 9 11 11 12 14 14 16 19 21 22 23 24 24 26 29 31 32 32 30 28 28 29 28 27 25 23 21 20 18 17 16 16 16 16 14 13 12 12 12 12 12 13 15 16 18 18
4 2 5 6 2 2 5 3 3 3 5 7 8 9 6 5 7 8 6 3 7 6 4 7 7 6 7 5 5 8 7 4 5 7 7 8 6 4 6 6 6 9 13 16 20 21 22 24 26 26 27 27 25 26 29 31 32 32 29 27 28 28 26 25 23 21 20 18 16 16 15 14 14 14 14 12 10 9 10 11 11 12 13 15 17 18
1 4 4 5 4 3 5 4 3 3 4 5 6 8 6 3 8 9 2 6 7 6 3 7 9 6 6 7 6 7 7 6 7 7 6 5 4 2 5 8 9 11 13 16 20 24 26 27 28 27 27 28 27 27 30 32 32 31 28 26 27 27 25 24 22 20 19 17 17 16 13 12 12 11 12 12 9 8 9 10 10 10 10 12 14 16
1 3 2 4 5 5 6 4 3 4 4 5 6 7 4 1 6 6 5 8 5 4 4 5 8 6 6 8 6 5 6 6 6 5 3 6 8 4 5 10 13 15 17 19 22 25 26 25 27 27 26 28 29 29 31 32 31 29 27 26 26 25 24 22 20 18 17 16 16 14 12 11 11 10 11 11 10 10 10 9 8 7 8 10 12 14
2 2 1 2 4 4 4 3 2 3 3 5 7 6 2 2 3 5 6 5 2 4 4 2 6 6 6 7 5 5 5 4 3 5 6 7 9 7 8 13 15 15 18 20 23 26 27 26 26 27 26 27 29 29 29 30 30 28 27 26 25 24 23 20 17 16 16 16 15 14 12 11 11 10 10 11 12 13 11 8 6 5 6 8 10 12
1 0 2 2 3 2 2 2 1 4 4 5 6 5 3 2 5 6 3 2 2 1 1 3 1 4 4 5 3 5 5 3 4 7 8 7 8 8 8 11 13 14 17 19 21 26 29 27 25 26 25 26 27 27 26 27 28 26 25 25 23 22 20 17 15 15 16 16 15 13 11 11 11 9 8 9 11 11 9 7 6 4 4 7 10 11
0 1 1 2 1 2 2 2 3 5 5 5 4 2 1 1 4 4 1 2 4 2 2 3 3 2 3 6 6 5 6 6 6 7 8 8 8 9 8 10 13 15 17 20 21 26 30 28 24 24 24 24 25 24 24 26 26 25 24 23 21 18 15 14 16 17 15 14 14 13 11 10 8 6 5 6 7 9 10 10 7 4 4 6 9 9
3 3 2 1 1 2 4 5 4 3 4 5 3 1 2 4 3 2 5 3 3 2 1 3 3 3 1 4 5 3 4 5 6 7 8 8 8 9 9 11 14 17 20 21 22 26 29 28 26 25 23 23 24 23 21 21 23 24 24 21 18 16 16 17 18 17 14 13 13 12 10 8 7 7 6 6 8 12 15 15 12 6 4 4 7 8
4 2 2 2 1 1 1 2 3 3 4 4 5 3 2 3 4 3 5 4 3 4 3 3 3 2 1 2 3 2 3 5 6 6 7 8 8 9 10 11 14 19 22 22 23 26 28 28 27 25 23 22 22 20 17 16 19 23 24 21 18 17 17 18 17 15 13 14 13 10 10 10 11 13 13 12 14 15 16 15 15 10 4 1 2 6
4 2 3 2 1 1 1 4 5 4 4 5 5 4 4 4 4 4 4 4 3 4 5 5 6 6 5 3 3 3 3 5 7 6 6 7 8 9 9 10 13 18 21 23 25 27 28 26 24 23 22 21 17 15 15 17 20 23 23 19 17 16 16 17 17 15 13 13 13 12 12 13 14 15 16 15 15 16 15 14 14 14 11 6 5 8
3 3 2 0 0 1 3 7 6 3 5 5 2 2 4 5 4 3 2 3 2 2 4 5 5 4 4 3 3 5 4 3 5 7 7 6 7 8 8 10 14 17 20 23 26 27 26 24 23 22 21 18 15 15 18 20 21 23 21 18 17 16 15 16 18 17 14 14 13 13 14 15 15 15 15 15 14 15 15 14 14 16 17 14 12 12
3 4 2 0 2 2 4 5 4 4 5 5 3 1 2 3 5 5 4 2 1 3 5 6 5 4 3 2 3 6 6 4 4 6 7 6 6 7 8 12 16 19 21 23 26 27 26 25 24 23 20 17 17 19 20 21 22 22 20 18 17 16 16 17 18 17 15 14 14 14 14 14 13 13 14 13 13 14 14 13 15 15 15 16 17 17
2 3 1 1 2 3 4 4 1 0 2 5 4 3 3 3 4 6 7 6 5 3 3 5 5 4 4 4 4 5 7 5 4 5 7 7 7 9 12 15 18 19 21 23 24 24 26 27 25 22 20 20 22 22 22 22 22 21 19 20 19 17 18 20 20 17 14 13 13 14 14 13 12 12 11 11 11 12 12 12 14 15 15 17 19 19
1 3 3 3 2 4 6 6 3 2 2 5 5 4 5 4 3 5 4 5 6 5 1 4 5 4 3 2 4 6 6 5 6 7 6 6 8 14 18 20 21 20 21 23 23 23 24 25 23 21 21 23 23 22 21 22 23 22 21 21 19 18 20 21 21 18 14 12 12 14 13 13 12 11 10 10 10 11 11 11 13 15 16 17 18 17
Wind_Direction
130 113 219 243 231 214 203 195 203 210 181 139 119 127 134 147 228 220 205 176 135 123 172 178 177 200 212 204 189 191 196 194 193 197 207 183 154 159 136 128 148 154 164 161 161 167 170 173 173 171 172 170 171 176 180 181 187 194 197 199 196 193 201 212 208 192 171 183 175 78 27 31 58 92 53 19 358 4 23 57 50 27 36 69 67 59
125 161 220 233 232 223 204 195 196 200 186 142 130 128 107 126 240 226 191 176 139 123 192 191 174 201 218 206 186 184 189 197 192 182 183 169 159 154 137 137 148 142 138 144 156 167 170 173 172 172 173 172 175 179 183 185 189 197 202 204 201 193 199 211 208 194 180 179 170 99 26 53 72 104 47 4 0 14 34 48 42 29 39 67 77 66
143 213 227 226 231 231 215 204 191 189 187 164 165 134 127 184 229 279 237 170 144 122 181 194 179 205 228 210 180 182 185 192 188 171 162 155 148 147 144 146 148 141 145 155 166 172 173 173 171 173 175 176 180 182 185 188 190 197 204 207 203 192 198 204 203 207 198 190 192 204 332 347 355 339 1 3 7 20 31 33 35 39 40 53 83 78
179 238 234 220 221 230 226 225 205 186 181 166 163 138 161 202 173 174 232 161 151 138 160 177 180 223 248 228 181 190 181 177 180 166 153 152 152 154 155 154 153 152 158 169 176 178 179 177 174 176 178 180 183 183 186 188 189 198 203 203 198 190 201 205 202 209 200 196 211 235 313 330 311 280 298 316 332 346 13 19 24 48 47 38 54 86
217 243 225 185 198 218 214 215 206 187 206 180 168 164 181 205 183 173 178 135 38 71 136 128 65 292 265 207 206 220 181 160 169 154 141 152 153 149 155 158 157 157 161 169 178 184 183 181 181 183 182 183 183 183 186 188 191 199 200 198 197 197 206 208 204 205 207 213 217 226 255 343 353 247 259 259 262 281 335 1 14 40 51 35 28 48
242 255 159 158 188 208 203 205 197 183 210 198 173 179 174 176 177 148 128 96 43 44 158 119 87 280 279 233 219 219 147 150 167 159 150 155 152 149 158 162 161 163 164 168 175 183 185 184 184 186 186 184 183 185 188 191 195 199 201 202 205 204 207 208 204 204 211 218 219 229 244 269 327 302 258 277 310 313 329 346 0 20 34 54 23 20
252 278 118 160 181 195 199 221 210 173 156 155 173 167 161 160 156 163 154 113 97 197 204 122 124 219 289 258 239 175 133 154 168 165 162 159 158 162 164 165 169 170 171 173 172 176 181 178 176 183 187 185 186 188 189 191 196 199 203 207 207 205 206 209 206 208 217 221 222 231 250 277 293 296 294 317 336 316 317 332 332 358 23 70 17 20
258 349 75 150 174 186 185 235 230 163 129 173 169 148 149 158 156 168 152 122 164 171 359 20 110 119 246 242 262 132 135 158 162 162 173 165 161 170 170 170 175 172 173 176 170 170 175 174 175 182 187 188 189 190 189 191 194 199 203 203 205 205 206 208 204 212 224 226 220 225 251 275 279 297 309 322 330 302 297 323 324 339 14 21 1 10
261 32 98 129 159 187 186 228 207 147 113 164 154 144 154 153 133 131 116 105 118 89 360 305 83 100 247 267 312 80 138 172 176 172 183 173 164 174 177 179 180 173 173 174 171 171 171 176 181 184 185 187 190 190 190 190 191 196 199 199 202 204 204 203 200 213 230 233 229 233 253 267 277 296 302 303 320 311 300 306 301 308 341 3 358 328
247 209 167 122 135 191 218 232 183 132 124 146 139 141 137 104 89 88 97 95 49 71 219 258 89 109 256 285 305 106 150 185 188 189 191 178 170 177 181 182 177 167 166 171 173 171 172 181 186 184 182 184 186 189 188 186 187 191 194 198 202 205 205 203 206 221 235 239 243 248 256 267 281 291 285 282 298 296 292 292 282 284 303 336 351 318
263 268 174 128 150 185 209 237 169 129 146 139 121 107 69 50 51 56 62 82 68 7 248 236 148 116 190 277 231 188 194 177 164 186 196 178 173 180 184 181 172 162 161 166 169 162 162 176 183 178 177 180 181 184 184 184 188 190 192 198 202 205 206 208 218 229 238 243 247 257 264 269 279 288 283 283 295 290 284 287 284 282 289 306 326 322
318 341 294 211 177 146 112 307 5 86 113 107 90 85 73 23 11 25 3 37 87 261 261 225 137 102 130 249 235 230 225 168 155 171 181 179 180 182 183 178 168 159 156 155 156 143 133 147 165 169 172 176 176 179 183 185 189 190 193 198 201 205 208 214 226 230 238 242 244 256 264 265 270 276 279 286 300 299 289 290 285 277 282 291 298 299
323 289 265 284 195 119 94 345 335 34 53 79 97 94 85 39 11 22 320 348 139 242 252 181 127 102 202 239 225 200 189 174 170 168 170 177 179 178 178 172 162 154 152 151 149 145 138 139 150 160 167 172 175 181 186 188 190 192 195 200 203 207 212 219 226 227 232 235 237 248 254 258 260 262 268 279 293 294 290 294 286 277 279 284 290 293
336 309 308 7 338 81 115 123 269 324 97 130 139 125 114 110 77 182 262 296 191 245 251 161 123 144 268 267 211 165 164 183 179 166 165 171 174 175 172 160 152 154 153 151 152 150 151 153 153 160 168 173 181 187 189 189 190 192 196 200 205 209 214 221 225 223 224 227 233 240 242 242 244 251 258 262 269 268 271 283 288 286 280 279 284 289
99 317 294 194 263 243 131 164 175 162 143 164 165 138 137 150 143 179 206 182 201 238 283 66 102 174 193 241 202 158 159 174 167 160 155 156 165 163 151 148 150 155 155 151 157 157 156 159 159 163 171 176 182 187 190 192 191 191 197 200 203 206 211 218 221 219 220 225 231 234 236 236 235 244 254 259 261 257 263 276 286 291 285 281 283 285
118 240 257 235 225 141 148 221 160 113 53 262 157 103 135 183 145 141 180 172 171 155 95 109 201 210 200 247 213 145 143 151 151 142 122 129 149 144 141 155 155 153 156 153 159 161 160 162 161 165 171 175 176 175 183 192 191 191 197 201 203 204 207 211 207 204 211 219 224 229 235 236 237 246 255 260 258 255 262 270 284 300 297 288 288 288
102 266 270 286 327 180 179 205 133 116 137 284 101 136 247 172 121 113 164 46 77 107 191 220 127 43 44 333 307 145 138 150 153 130 117 136 147 145 152 161 156 156 160 162 165 164 162 163 165 168 170 174 176 172 175 185 188 192 198 205 209 209 210 211 205 197 199 207 214 223 229 232 238 247 255 263 266 266 263 264 279 296 295 289 289 287
129 278 280 155 146 238 199 103 51 85 127 109 163 215 227 59 86 106 110 19 49 110 246 247 146 159 142 136 285 223 154 166 161 123 123 142 145 148 159 159 157 161 161 162 161 158 160 162 166 170 172 178 182 180 178 182 188 193 197 201 203 206 210 212 210 209 209 212 216 218 221 227 235 246 261 272 274 268 259 264 283 291 291 292 289 283
121 6 292 274 173 252 13 62 32 338 41 112 175 184 102 90 307 38 106 143 131 147 237 263 156 188 181 169 189 189 177 174 156 126 137 150 151 154 159 157 157 157 157 159 155 155 160 161 164 167 169 174 179 179 177 179 187 188 190 196 198 202 209 211 212 215 215 214 215 220 227 234 240 253 270 275 268 261 259 269 284 287 291 296 291 284
112 107 286 294 277 325 19 62 135 302 339 23 33 20 51 138 167 157 121 154 143 147 174 134 41 235 228 199 177 181 184 170 154 148 156 161 158 156 156 157 160 160 163 164 160 162 164 163 167 168 168 172 177 180 180 183 191 190 191 201 205 207 210 210 210 212 213 211 211 217 223 229 239 250 260 263 264 267 272 277 280 284 292 296 293 291
66 91 209 296 331 45 31 191 175 182 324 39 42 18 351 10 94 96 7 78 125 136 158 137 118 261 256 207 175 183 187 173 162 161 165 165 158 155 158 160 163 167 167 165 163 165 168 171 173 174 176 179 183 187 190 193 197 200 201 203 205 209 209 207 208 209 213 214 214 217 220 226 237 245 252 258 263 270 275 275 275 281 289 289 289 290
103 99 143 304 349 62 246 240 183 169 158 144 128 122 156 123 80 85 354 315 84 115 152 144 156 264 268 181 169 185 186 176 165 159 159 162 159 159 164 166 167 168 168 169 169 167 171 178 179 179 182 185 189 193 196 197 200 204 206 205 207 212 213 213 215 216 218 218 218 223 228 234 240 243 248 252 259 265 269 272 276 281 283 282 286 288
135 103 94 309 256 217 273 307 175 148 125 113 119 137 140 116 101 115 162 277 15 61 116 114 112 259 270 255 180 185 176 167 161 155 152 158 162 163 169 172 170 168 170 171 169 168 176 182 184 185 186 190 194 197 198 200 204 207 209 209 212 216 220 222 224 225 226 226 227 230 232 237 241 244 248 252 258 264 269 274 279 281 279 281 287 289
72 75 67 312 305 298 306 327 351 47 76 80 43 60 101 100 119 142 164 167 78 30 78 88 79 258 274 291 196 154 137 139 154 153 150 156 165 165 167 172 171 168 168 167 166 171 178 182 187 188 189 193 197 200 201 204 209 212 213 215 217 220 224 226 229 233 232 232 234 236 237 240 242 243 248 255 261 266 272 277 280 282 282 284 289 291
69 67 88 56 5 350 340 344 350 358 38 101 308 339 81 98 87 83 86 82 62 1 133 115 168 253 275 327 104 117 118 130 152 157 153 159 166 166 167 170 169 164 163 164 164 171 178 183 190 193 193 195 197 201 204 208 213 216 218 220 221 224 226 227 228 230 230 232 235 236 236 238 240 244 250 257 263 269 274 277 280 284 286 288 291 294
117 139 115 107 112 150 268 290 278 301 357 85 36 319 111 105 100 105 47 61 74 250 105 124 182 246 287 360 101 122 129 137 155 164 164 167 167 166 164 164 163 161 164 167 166 173 183 186 192 196 197 198 200 202 206 210 214 217 221 225 226 225 221 217 217 219 221 225 229 233 235 237 238 242 248 257 265 273 280 285 289 293 297 301 303 305
93 97 119 132 155 178 187 224 225 163 131 136 129 280 336 88 103 106 83 91 170 132 56 210 187 178 253 265 130 143 151 152 162 170 171 175 172 168 164 161 164 165 167 168 167 175 185 190 197 201 201 202 204 203 206 211 215 218 223 226 225 220 213 208 209 211 213 215 219 226 229 233 238 243 255 269 280 291 303 314 323 333 344 350 353 355
86 39 139 143 172 202 194 219 243 160 154 178 171 168 202 101 93 95 112 187 155 98 6 265 191 155 216 235 184 170 168 162 169 175 177 181 177 169 162 158 162 166 169 171 173 178 188 195 202 206 205 205 205 205 207 212 216 219 222 222 218 214 212 211 210 210 209 211 215 222 229 240 251 260 275 307 16 41 43 44 42 39 35 30 27 26
106 203 251 141 242 268 223 222 240 205 180 179 180 179 170 156 132 126 173 190 139 127 208 221 168 175 227 231 204 191 178 171 179 181 176 174 168 163 160 160 164 170 175 179 182 186 192 197 200 207 210 208 204 204 207 211 215 220 223 222 218 217 218 218 216 211 209 214 222 232 246 251 138 102 94 88 78 68 59 51 46 41 35 33 34 35
102 229 253 96 17 314 309 312 203 199 260 304 220 194 168 173 176 159 175 184 141 149 200 177 158 208 233 213 210 212 192 173 169 163 155 158 166 169 168 168 171 176 181 187 193 195 197 200 198 202 209 211 207 206 208 212 214 217 222 224 224 223 222 221 219 214 212 219 222 172 117 110 106 100 91 80 69 60 54 49 44 39 37 37 38 37
81 223 248 77 41 317 305 326 317 183 205 245 257 247 139 146 173 153 152 158 124 132 188 141 136 256 264 225 203 195 168 138 131 148 162 170 175 174 174 177 179 183 189 193 195 197 200 204 202 199 203 210 213 210 209 212 215 218 223 226 228 229 225 221 215 204 184 147 120 116 113 106 97 88 79 70 64 61 56 50 43 39 38 35 32 33
80 147 314 62 50 289 292 335 334 330 135 228 268 256 154 139 167 187 188 178 155 152 151 122 129 251 259 238 155 154 157 145 149 165 173 178 180 176 179 186 186 189 194 195 196 198 200 204 204 196 194 202 210 210 207 211 217 220 221 221 227 230 221 204 176 146 129 119 113 109 102 96 88 81 75 69 66 64 58 52 46 40 35 29 26 30
113 115 110 84 87 273 290 340 335 352 21 332 270 215 180 169 175 171 192 198 173 150 143 165 213 228 211 167 151 172 186 170 168 176 172 175 186 187 187 191 193 196 196 194 195 196 198 202 203 194 187 191 199 202 199 200 199 192 187 187 193 194 176 154 139 128 120 113 107 102 97 93 88 82 77 71 66 61 56 52 48 43 38 34 33 36
115 123 168 140 132 262 289 339 15 15 345 263 242 187 173 179 175 171 193 203 195 174 145 175 215 202 169 172 174 184 200 191 183 192 184 171 176 189 198 199 199 200 199 197 198 199 201 202 201 197 191 189 192 191 184 178 167 153 148 147 144 141 136 131 126 121 115 110 105 101 97 94 89 84 79 70 62 57 54 52 49 47 48 47 44 42
125 136 180 137 133 225 307 24 35 316 248 250 278 245 183 172 163 165 198 213 205 201 152 156 203 191 180 195 197 190 199 202 198 201 193 176 170 178 195 205 200 194 196 200 203 205 205 198 192 195 198 194 188 178 165 156 146 139 136 135 132 128 126 123 119 116 113 109 104 99 97 94 89 83 74 66 62 60 57 55 54 56 58 55 50 47
153 155 177 181 161 199 358 69 144 249 255 287 324 331 132 113 119 127 356 275 228 201 173 179 212 212 194 204 215 211 203 198 210 219 204 191 181 173 182 196 192 188 192 196 200 201 201 198 191 185 184 181 171 159 148 143 140 135 130 129 128 124 122 120 116 114 111 106 101 97 93 90 86 79 72 67 67 65 62 63 65 64 61 56 53 52
155 142 166 230 219 163 157 192 242 283 295 310 310 237 157 138 163 155 165 272 253 208 182 192 217 226 223 228 227 210 160 112 167 246 241 222 208 186 177 180 180 181 182 183 191 196 195 193 184 171 160 152 148 146 141 137 136 130 123 122 122 120 119 116 113 112 108 102 97 91 87 86 84 78 73 73 75 73 70 72 71 64 58 54 53 52
171 167 186 211 228 117 125 212 294 303 270 254 253 259 252 199 170 141 114 298 273 237 201 203 214 222 231 245 202 151 122 108 167 239 247 235 227 200 170 165 168 166 153 142 151 162 166 165 159 152 147 139 135 136 136 133 131 124 118 117 118 117 115 112 110 109 104 98 92 87 86 87 84 78 75 76 79 79 80 82 77 66 60 56 53 52
193 147 145 161 180 117 132 182 217 204 237 246 252 271 267 169 137 99 69 321 277 264 220 193 197 209 209 201 163 139 131 148 202 233 239 226 224 195 152 140 136 142 140 137 137 137 139 142 141 139 138 133 129 131 132 131 127 120 115 115 116 114 111 109 110 107 101 98 92 85 84 86 86 81 75 71 76 86 93 93 84 71 64 58 53 51
119 66 107 156 192 177 153 180 224 214 240 258 264 274 268 149 99 83 73 262 265 277 244 164 165 178 165 152 147 142 152 182 206 234 239 196 167 156 147 142 138 136 132 131 132 132 133 135 133 130 129 129 129 130 129 127 122 116 114 115 115 114 112 112 111 108 105 101 93 84 83 88 93 89 73 66 76 96 100 99 90 75 66 62 55 51
41 69 126 169 186 185 169 183 246 247 254 287 291 280 270 69 78 101 201 234 244 271 264 157 156 174 150 137 143 158 185 206 204 212 204 140 124 104 105 118 123 127 128 129 130 128 126 126 126 124 124 127 129 129 127 125 119 115 116 117 116 115 117 116 114 111 108 105 98 94 93 93 98 96 79 73 86 97 97 101 97 76 66 64 56 50
348 15 9 146 169 187 174 170 257 262 268 306 306 300 321 120 168 199 224 239 238 256 266 147 157 178 150 138 157 166 182 216 175 140 136 129 125 123 118 115 112 113 120 124 126 125 120 117 118 119 122 127 128 128 128 125 119 118 119 117 116 120 121 118 114 111 109 108 107 107 106 100 98 96 86 85 96 97 92 98 102 79 67 69 60 55
183 46 316 239 192 150 84 89 198 228 263 323 334 338 31 118 202 221 245 335 358 277 323 46 123 195 151 124 143 142 127 97 89 113 120 118 118 120 122 123 120 119 122 122 124 125 122 118 118 121 124 128 130 131 131 126 121 120 119 117 121 125 122 117 116 113 110 111 111 109 108 105 103 99 93 95 100 96 90 99 108 97 79 71 62 54
69 151 250 262 213 121 123 196 207 215 262 324 8 89 121 225 231 213 153 37 31 65 93 51 15 283 173 138 139 137 120 106 105 118 120 119 126 126 124 125 124 123 124 124 127 128 125 121 121 122 126 130 133 134 134 129 125 123 121 123 129 129 124 123 122 117 114 118 118 111 106 106 102 96 96 99 93 80 75 77 82 104 112 77 59 49
281 233 179 181 210 158 176 211 233 250 276 320 4 153 233 280 282 143 115 79 20 22 83 85 44 339 286 133 125 114 122 130 135 137 136 138 141 137 132 132 131 129 128 128 130 130 127 126 126 126 128 133 135 135 132 130 129 127 127 132 136 130 129 132 130 123 124 131 129 117 106 99 88 77 80 92 86 72 65 60 57 74 121 92 59 46
273 266 122 110 308 331 171 238 301 319 306 326 343 322 303 331 334 19 69 65 25 6 27 79 80 13 355 106 103 100 152 150 142 140 142 141 139 134 131 130 130 131 131 130 131 131 129 129 130 129 129 132 134 133 132 134 138 136 135 138 139 136 138 139 134 131 134 135 128 118 110 101 91 83 84 90 86 72 61 55 52 55 78 132 33 22
308 8 74 74 9 42 297 293 319 328 300 310 337 347 7 22 12 8 21 26 24 30 41 49 39 19 15 45 91 123 151 148 139 137 140 138 139 141 138 135 136 138 138 138 138 137 135 134 133 133 132 133 135 138 139 140 142 142 140 140 142 143 143 142 141 143 141 129 116 113 110 101 92 88 89 90 83 66 56 54 49 43 42 34 360 358
321 4 37 63 172 161 231 268 287 286 266 272 295 13 10 6 4 357 317 248 201 114 85 71 57 38 16 20 83 107 107 123 142 143 144 145 145 144 140 140 142 142 142 143 144 143 141 140 140 139 138 136 140 147 145 140 141 143 143 143 146 147 147 148 149 145 135 121 112 109 107 98 89 88 89 88 75 57 51 51 45 44 49 50 41 29
302 332 324 358 354 320 279 285 314 342 319 301 300 18 15 349 348 357 346 306 188 110 99 92 90 103 121 137 127 107 104 121 154 151 148 150 149 147 146 148 148 148 150 152 153 153 152 149 147 145 143 144 148 148 145 143 145 149 149 149 152 154 153 151 146 137 129 123 116 113 109 100 91 87 86 81 65 53 52 49 43 46 55 58 55 50
319 310 295 55 358 308 274 260 250 75 291 281 292 330 331 322 5 19 6 355 3 33 94 90 70 62 96 129 133 114 115 127 145 152 157 158 156 156 155 154 155 156 159 160 161 160 157 153 151 149 149 153 156 153 150 150 152 155 157 157 156 153 148 144 139 137 137 132 124 122 118 107 98 90 82 71 55 49 51 47 45 52 60 60 57 55
269 240 203 159 199 244 255 257 233 153 250 270 282 305 295 292 13 29 358 334 335 330 16 94 80 49 35 85 122 124 132 142 143 148 159 167 169 167 164 163 163 164 166 167 165 163 160 158 157 157 157 159 162 160 157 157 159 161 161 160 158 153 146 142 140 140 140 136 129 126 119 107 100 92 80 69 56 47 44 48 58 65 64 57 56 58